Location: Camp Crooked Creek
(37.9149°N, 85.6607°W)
Time: 16:31:31
(UTC-04:00)

Amateur Radio Satellites - All Passes

Search period start: 24 October 2014 16:01
Search period end: 25 October 2014 16:01
Location: Camp Crooked Creek, 37.9149°N, 85.6607°W

Satellite Date Start Highest point End Downlink Frequencies (MHz)
Time Altitude Azimuth
JAS-1B 24 Oct 16:02:56 16:07:07 19° 265° (W) 16:11:07 435.800 - 435.900 CW/SSB
Gurwin Techsat 1B 24 Oct 16:10:44 16:15:51 49° 260° (W) 16:21:00 435.225 FM
TMSAT-1 24 Oct 16:22:11 16:27:19 52° 260° (W) 16:32:30 436.925 FM
KITSAT 1 24 Oct 16:37:44 16:39:52 11° 335° (NNW) 16:42:00 435.175 FM
AO-27 24 Oct 16:42:16 16:44:24 12° 269° (W) 16:46:32 436.795 MHz FM
Saudisat 1A 24 Oct 17:06:24 17:10:31 36° 53° (NE) 17:14:36 436.775 MHz
Uosat F 24 Oct 17:11:33 17:16:32 70° 74° (ENE) 17:21:34 435.120 FM
UOSAT-12 24 Oct 17:14:46 17:17:39 16° 316° (NW) 17:20:34 437.025 FM, 437.400 FM
AO-7 24 Oct 17:16:28 17:24:45 81° 253° (WSW) 17:33:04 29.400 - 29.500 MHz
JAS-2 24 Oct 18:01:34 18:07:13 51° 70° (ENE) 18:13:37 435.800 - 435.900 CW/SSB, 435.910 FM
Hamsat 24 Oct 18:36:06 18:40:16 65° 76° (ENE) 18:44:26 145.90 MHz
Saudisat 1A 24 Oct 18:46:31 18:49:50 21° 249° (WSW) 18:53:09 436.775 MHz
OPAL 24 Oct 18:53:51 18:58:47 64° 104° (ESE) 19:03:40 ?
Uosat F 24 Oct 18:54:02 18:55:47 12° 269° (W) 18:57:32 435.120 FM
AO-7 24 Oct 19:14:58 19:18:37 13° 270° (W) 19:22:17 29.400 - 29.500 MHz
ISS 24 Oct 19:39:23 19:42:15 26° 30° (NNE) 19:45:06 145.800 FM
JAS-2 24 Oct 19:48:15 19:52:43 22° 270° (W) 19:57:36 435.800 - 435.900 CW/SSB, 435.910 FM
SO-67 24 Oct 20:00:54 20:04:19 79° 77° (ENE) 20:07:46 435.3500 MHz FM
HO-68 24 Oct 20:16:28 20:21:09 19° 57° (ENE) 20:25:51 435.675 MHz FM
KITSAT 1 24 Oct 20:34:16 20:39:51 20° 38° (NE) 20:45:25 435.175 FM
OPAL 24 Oct 20:34:29 20:37:06 15° 300° (WNW) 20:39:42 ?
STRAND 1 24 Oct 20:37:47 20:42:58 84° 104° (ESE) 20:48:06 ?
AO-40 24 Oct 21:11:48 23:25:46 34° 208° (SSW) 04:08:08 Beacon 2401.320
ISS 24 Oct 21:15:55 21:18:59 34° 226° (SW) 21:22:02 145.800 FM
RS-15 24 Oct 21:39:01 21:47:20 26° 103° (ESE) 21:55:32 29.354 - 29.394 USB, Beacon 29.352 USB
UKube-1 24 Oct 21:45:30 21:48:56 23° 68° (ENE) 21:52:23 145.840 MHz, 145.915 MHz
HO-68 24 Oct 22:00:51 22:08:00 81° 255° (WSW) 22:15:14 435.675 MHz FM
STRAND 1 24 Oct 22:19:43 22:21:24 12° 300° (WNW) 22:23:05 ?
FUNcube-1 24 Oct 22:24:30 22:28:09 24° 69° (ENE) 22:31:46 145.950 - 145.970 MHz USB
Oscar 11 24 Oct 22:26:13 22:30:27 58° 75° (ENE) 22:34:42 145.825 FM, Beacon 2401.500 USB
KITSAT 1 24 Oct 22:28:30 22:36:37 78° 60° (ENE) 22:44:41 435.175 FM
SO-50 24 Oct 22:39:34 22:44:21 56° 56° (NE) 22:49:09 436.795 FM
ZACube-1 24 Oct 23:14:51 23:19:27 86° 77° (ENE) 23:24:01 437.345 MHz
UKube-1 24 Oct 23:21:13 23:24:58 28° 263° (W) 23:28:45 145.840 MHz, 145.915 MHz
RS-15 24 Oct 23:47:26 23:58:28 77° 302° (WNW) 00:09:27 29.354 - 29.394 USB, Beacon 29.352 USB
HO-68 24 Oct 23:54:17 23:56:39 12° 271° (W) 23:59:01 435.675 MHz FM
FUNcube-1 25 Oct 00:00:18 00:04:21 30° 263° (W) 00:08:22 145.950 - 145.970 MHz USB
UOSAT-12 25 Oct 00:03:55 00:08:18 37° 52° (NE) 00:12:36 437.025 FM, 437.400 FM
Oscar 11 25 Oct 00:05:53 00:06:58 11° 269° (W) 00:08:03 145.825 FM, Beacon 2401.500 USB
SO-50 25 Oct 00:21:29 00:24:27 16° 251° (WSW) 00:27:26 436.795 FM
KITSAT 1 25 Oct 00:25:37 00:31:06 20° 258° (WSW) 00:36:35 435.175 FM
MaSat-1 25 Oct 00:50:23 00:54:34 69° 295° (WNW) 00:58:23 437.345 MHz
UOSAT-12 25 Oct 01:44:30 01:48:13 24° 249° (WSW) 01:51:53 437.025 FM, 437.400 FM
JAS-1B 25 Oct 01:55:52 02:00:02 16° 93° (E) 02:04:34 435.800 - 435.900 CW/SSB
RS-15 25 Oct 02:04:29 02:12:56 25° 329° (NNW) 02:21:28 29.354 - 29.394 USB, Beacon 29.352 USB
Oscar 16 25 Oct 02:04:33 02:07:20 15° 92° (E) 02:10:06 437.025 USB, Beacon 2401.1428
Oscar 10/S400 25 Oct 02:28:25 03:27:17 19° 246° (WSW) 05:32:05 145.825 - 145.975 CW/USB, Beacon 145.810 USB
Oscar 19 25 Oct 02:56:14 03:01:11 48° 100° (E) 03:06:06 437.125 CW, 437.150 USB
AO-27 25 Oct 03:14:36 03:19:07 29° 96° (E) 03:23:35 436.795 MHz FM
AO-Echo 25 Oct 03:35:54 03:41:12 64° 101° (E) 03:46:26 ?
Oscar 16 25 Oct 03:42:00 03:47:02 59° 287° (WNW) 03:52:03 437.025 USB, Beacon 2401.1428
Sapphire 25 Oct 03:42:35 03:46:24 20° 105° (ESE) 03:50:14 437.095 MHz 1200 baud AX-25 AFSK
JAS-1B 25 Oct 03:44:10 03:50:57 83° 285° (WNW) 03:59:06 435.800 - 435.900 CW/SSB
Uribyol 2 25 Oct 04:01:42 04:06:57 88° 104° (ESE) 04:12:08 436.500 FM
PCSat 25 Oct 04:03:53 04:08:43 35° 109° (ESE) 04:13:35 145.825 MHz
ITAMSAT 1 25 Oct 04:07:46 04:13:02 87° 285° (WNW) 04:18:14 435.822 SSB
RS-15 25 Oct 04:25:12 04:31:09 15° 6° (N) 04:37:10 29.354 - 29.394 USB, Beacon 29.352 USB
Gurwin Techsat 1B 25 Oct 04:28:30 04:33:50 78° 103° (ESE) 04:39:08 435.225 FM
OPAL 25 Oct 04:32:15 04:33:56 12° 59° (ENE) 04:35:37 ?
Oscar 19 25 Oct 04:36:36 04:40:08 19° 295° (WNW) 04:43:40 437.125 CW, 437.150 USB
TMSAT-1 25 Oct 04:39:38 04:44:57 73° 102° (ESE) 04:50:14 436.925 FM
AO-27 25 Oct 04:53:59 04:58:34 32° 292° (WNW) 05:03:08 436.795 MHz FM
AO-Echo 25 Oct 05:16:13 05:19:23 16° 297° (WNW) 05:22:33 ?
AO-7 25 Oct 05:20:20 05:27:59 39° 99° (E) 05:35:36 29.400 - 29.500 MHz
Uosat F 25 Oct 05:21:42 05:25:49 25° 95° (E) 05:29:53 435.120 FM
Sapphire 25 Oct 05:24:09 05:29:23 51° 302° (WNW) 05:34:41 437.095 MHz 1200 baud AX-25 AFSK
JAS-1B 25 Oct 05:37:39 05:40:52 14° 300° (WNW) 05:44:19 435.800 - 435.900 CW/SSB
Uribyol 2 25 Oct 05:44:11 05:45:37 11° 300° (WNW) 05:47:04 436.500 FM
PCSat 25 Oct 05:47:20 05:52:06 31° 306° (NW) 05:56:55 145.825 MHz
ITAMSAT 1 25 Oct 05:50:49 05:51:41 10° 301° (WNW) 05:52:32 435.822 SSB
OPAL 25 Oct 06:06:55 06:12:05 86° 254° (WSW) 06:17:13 ?
Gurwin Techsat 1B 25 Oct 06:10:45 06:13:05 13° 299° (WNW) 06:15:26 435.225 FM
STRAND 1 25 Oct 06:16:49 06:18:35 12° 60° (ENE) 06:20:22 ?
TMSAT-1 25 Oct 06:21:36 06:24:12 14° 298° (WNW) 06:26:47 436.925 FM
Hamsat 25 Oct 06:25:11 06:27:08 13° 92° (E) 06:29:04 145.90 MHz
RS-15 25 Oct 06:38:50 06:48:35 33° 40° (NE) 06:58:36 29.354 - 29.394 USB, Beacon 29.352 USB
JAS-2 25 Oct 06:56:25 07:04:10 61° 100° (E) 07:11:48 435.800 - 435.900 CW/SSB, 435.910 FM
Uosat F 25 Oct 07:00:03 07:04:37 35° 291° (WNW) 07:09:09 435.120 FM
AO-7 25 Oct 07:13:01 07:20:45 45° 296° (WNW) 07:28:30 29.400 - 29.500 MHz
Saudisat 1A 25 Oct 07:13:10 07:15:22 14° 108° (ESE) 07:17:34 436.775 MHz
PANSAT 25 Oct 07:45:49 07:47:12 12° 164° (SSE) 07:48:34 not established
STRAND 1 25 Oct 07:51:54 07:57:02 82° 257° (WSW) 08:02:13 ?
Hamsat 25 Oct 07:59:16 08:03:17 46° 286° (WNW) 08:07:19 145.90 MHz
JAS-2 25 Oct 08:42:13 08:48:37 29° 297° (WNW) 08:55:02 435.800 - 435.900 CW/SSB, 435.910 FM
Saudisat 1A 25 Oct 08:50:09 08:54:26 54° 304° (NW) 08:58:46 436.775 MHz
RS-15 25 Oct 08:50:53 09:02:05 78° 243° (WSW) 09:13:48 29.354 - 29.394 USB, Beacon 29.352 USB
SO-67 25 Oct 08:58:37 09:02:03 65° 283° (WNW) 09:05:27 435.3500 MHz FM
PANSAT 25 Oct 09:23:55 09:26:42 19° 176° (S) 09:29:28 not established
HO-68 25 Oct 09:31:49 09:37:01 21° 93° (E) 09:42:11 435.675 MHz FM
Oscar 11 25 Oct 10:17:42 10:19:18 12° 91° (E) 10:20:54 145.825 FM, Beacon 2401.500 USB
MaSat-1 25 Oct 10:38:25 10:40:49 38° 250° (WSW) 10:43:04 437.345 MHz
PANSAT 25 Oct 11:03:43 11:06:15 17° 189° (S) 11:08:48 not established
RS-15 25 Oct 11:06:38 11:12:40 16° 262° (W) 11:18:51 29.354 - 29.394 USB, Beacon 29.352 USB
KITSAT 1 25 Oct 11:06:45 11:08:17 11° 98° (E) 11:09:50 435.175 FM
ZACube-1 25 Oct 11:07:10 11:10:03 18° 93° (E) 11:12:53 437.345 MHz
UKube-1 25 Oct 11:10:24 11:14:41 53° 101° (E) 11:18:56 145.840 MHz, 145.915 MHz
HO-68 25 Oct 11:18:04 11:25:12 67° 289° (WNW) 11:32:17 435.675 MHz FM
FUNcube-1 25 Oct 11:50:45 11:54:57 58° 100° (E) 11:59:02 145.950 - 145.970 MHz USB
Oscar 11 25 Oct 11:51:35 11:55:46 52° 286° (WNW) 11:59:57 145.825 FM, Beacon 2401.500 USB
ISS 25 Oct 12:20:54 12:23:13 18° 130° (SE) 12:25:33 145.800 FM
Sapphire 25 Oct 12:32:08 12:34:54 14° 44° (NE) 12:37:40 437.095 MHz 1200 baud AX-25 AFSK
Oscar 10/S400 25 Oct 12:37:08 12:57:54 28° 152° (SSE) 13:13:04 145.825 - 145.975 CW/USB, Beacon 145.810 USB
ZACube-1 25 Oct 12:42:43 12:46:32 33° 289° (WNW) 12:50:16 437.345 MHz
UKube-1 25 Oct 12:48:18 12:50:24 13° 296° (WNW) 12:52:29 145.840 MHz, 145.915 MHz
SO-50 25 Oct 12:53:36 12:57:17 26° 112° (ESE) 13:01:03 436.795 FM
PCSat 25 Oct 12:53:41 12:57:49 22° 49° (NE) 13:01:55 145.825 MHz
KITSAT 1 25 Oct 12:54:13 13:02:13 70° 115° (ESE) 13:10:15 435.175 FM
HO-68 25 Oct 13:09:14 13:11:33 12° 308° (NW) 13:13:52 435.675 MHz FM
Oscar 16 25 Oct 13:19:44 13:23:20 20° 65° (ENE) 13:26:55 437.025 USB, Beacon 2401.1428
FUNcube-1 25 Oct 13:29:33 13:30:46 11° 296° (WNW) 13:31:59 145.950 - 145.970 MHz USB
Uribyol 2 25 Oct 13:41:47 13:44:12 13° 61° (ENE) 13:46:37 436.500 FM
ITAMSAT 1 25 Oct 13:47:40 13:50:21 14° 62° (ENE) 13:53:03 435.822 SSB
ISS 25 Oct 13:56:29 13:59:40 42° 325° (NW) 14:02:53 145.800 FM
Oscar 19 25 Oct 14:11:18 14:16:21 59° 73° (ENE) 14:21:25 437.125 CW, 437.150 USB
Gurwin Techsat 1B 25 Oct 14:11:46 14:13:55 13° 61° (ENE) 14:16:05 435.225 FM
Sapphire 25 Oct 14:13:39 14:19:07 87° 63° (ENE) 14:24:33 437.095 MHz 1200 baud AX-25 AFSK
UOSAT-12 25 Oct 14:15:03 14:17:49 16° 108° (ESE) 14:20:37 437.025 FM, 437.400 FM
TMSAT-1 25 Oct 14:23:04 14:24:47 12° 60° (ENE) 14:26:30 436.925 FM
JAS-1B 25 Oct 14:29:07 14:35:07 72° 74° (ENE) 14:40:46 435.800 - 435.900 CW/SSB
AO-27 25 Oct 14:30:59 14:35:44 37° 70° (ENE) 14:40:31 436.795 MHz FM
SO-50 25 Oct 14:33:38 14:37:41 32° 309° (NW) 14:41:50 436.795 FM
PCSat 25 Oct 14:36:16 14:41:34 55° 247° (WSW) 14:46:49 145.825 MHz
AO-Echo 25 Oct 14:47:06 14:51:55 66° 74° (ENE) 14:56:56 ?
KITSAT 1 25 Oct 14:51:32 14:58:16 28° 315° (NW) 15:05:03 435.175 FM
Oscar 16 25 Oct 14:57:19 15:02:17 48° 260° (W) 15:07:17 437.025 USB, Beacon 2401.1428
Uribyol 2 25 Oct 15:17:47 15:22:59 75° 257° (WSW) 15:28:14 436.500 FM
ITAMSAT 1 25 Oct 15:24:02 15:29:13 69° 258° (WSW) 15:34:26 435.822 SSB
ISS 25 Oct 15:35:59 15:37:04 11° 344° (NNW) 15:38:09 145.800 FM
Gurwin Techsat 1B 25 Oct 15:47:51 15:53:09 81° 257° (WSW) 15:58:30 435.225 FM
Oscar 19 25 Oct 15:53:13 15:56:03 15° 268° (W) 15:58:53 437.125 CW, 437.150 USB
